When you browse on this site, cookies collect data to enhance your experience and personalize the content and advertising you see.
Visit our Privacy Policy to learn more. By continuing to use the site, you agree to this use of cookies and data.
  • In Austria
  • List of Countries
  • For 7 days
  • Water Temperature
  • Satellite Maps
  • Weather Map
  • News
  • Weather Widgets
  • user-avatar
    Login

    Hourly Weather Chiredzi

    Today, 21 January, Monday

    Time Temperature Precipitation Wind Pressure Humidity
    00:00 +21°C° 0 mm 3 mps 730 mmHg 74%
    01:00 +21°C° 0 mm 3 mps 730 mmHg 75%
    02:00 +20°C° 0 mm 3 mps 730 mmHg 74%
    03:00 +20°C° 0 mm 3 mps 730 mmHg 77%
    04:00 +19°C° 0 mm 2 mps 730 mmHg 79%
    05:00 +18°C° 0 mm 2 mps 730 mmHg 82%
    06:00 +19°C° 0 mm 3 mps 730 mmHg 77%
    07:00 +21°C° 0 mm 3 mps 731 mmHg 73%
    08:00 +22°C° 0 mm 4 mps 731 mmHg 67%
    09:00 +25°C° 0 mm 4 mps 731 mmHg 62%
    10:00 +26°C° 0 mm 3 mps 730 mmHg 58%
    11:00 +28°C° 0 mm 3 mps 730 mmHg 53%
    12:00 +28°C° 0 mm 3 mps 729 mmHg 54%
    13:00 +28°C° 0 mm 3 mps 729 mmHg 54%
    14:00 +29°C° 0 mm 2 mps 728 mmHg 55%
    15:00 +27°C° 0 mm 3 mps 727 mmHg 61%
    16:00 +26°C° 0 mm 3 mps 727 mmHg 68%
    17:00 +25°C° 0 mm 3 mps 726 mmHg 74%
    18:00 +24°C° 0 mm 2 mps 726 mmHg 76%
    19:00 +23°C° 0 mm 2 mps 726 mmHg 79%
    20:00 +23°C° 0 mm 1 mps 726 mmHg 81%
    21:00 +22°C° 0 mm 1 mps 726 mmHg 83%
    22:00 +20°C° 0 mm 0 mps 727 mmHg 84%
    23:00 +20°C° 0 mm 0 mps 727 mmHg 86%

    Tomorrow, 22 January, Tuesday

    Time Temperature Precipitation Wind Pressure Humidity
    00:00 +19°C° 0 mm 0 mps 727 mmHg 86%
    01:00 +19°C° 0 mm 0 mps 726 mmHg 87%
    02:00 +19°C° 0 mm 0 mps 726 mmHg 87%
    03:00 +21°C° 0 mm 1 mps 726 mmHg 88%
    04:00 +21°C° 0 mm 1 mps 726 mmHg 88%
    05:00 +21°C° 0 mm 1 mps 726 mmHg 89%
    06:00 +21°C° 0 mm 2 mps 726 mmHg 86%
    07:00 +23°C° 0 mm 2 mps 726 mmHg 82%
    08:00 +24°C° 0 mm 2 mps 727 mmHg 79%
    09:00 +24°C° 0 mm 2 mps 727 mmHg 77%
    10:00 +25°C° 0 mm 2 mps 726 mmHg 76%
    11:00 +26°C° 0 mm 2 mps 726 mmHg 74%
    12:00 +27°C° 0 mm 2 mps 726 mmHg 67%
    13:00 +29°C° 0 mm 2 mps 725 mmHg 60%
    14:00 +31°C° 0 mm 2 mps 725 mmHg 53%
    15:00 +31°C° 0 mm 2 mps 724 mmHg 52%
    16:00 +31°C° 0 mm 2 mps 724 mmHg 50%
    17:00 +32°C° 0 mm 2 mps 723 mmHg 48%
    18:00 +30°C° 0 mm 2 mps 723 mmHg 56%
    19:00 +28°C° 0 mm 2 mps 723 mmHg 63%
    20:00 +26°C° 0 mm 2 mps 723 mmHg 70%
    21:00 +25°C° 0 mm 1 mps 724 mmHg 74%
    22:00 +25°C° 0 mm 1 mps 724 mmHg 78%
    23:00 +24°C° 0 mm 1 mps 724 mmHg 82%

    Day after tomorrow, 23 January, Wednesday

    Time Temperature Precipitation Wind Pressure Humidity
    00:00 +24°C° 0 mm 1 mps 723 mmHg 83%
    01:00 +21°C° 0 mm 0 mps 723 mmHg 85%
    02:00 +21°C° 0 mm 0 mps 722 mmHg 86%
    03:00 +21°C° 0 mm 0 mps 723 mmHg 87%
    04:00 +21°C° 0 mm 0 mps 723 mmHg 89%
    05:00 +23°C° 0 mm 1 mps 723 mmHg 90%
    06:00 +24°C° 0 mm 1 mps 724 mmHg 85%
    07:00 +25°C° 0 mm 2 mps 724 mmHg 80%
    08:00 +27°C° 0 mm 2 mps 725 mmHg 75%
    09:00 +29°C° 0 mm 2 mps 725 mmHg 62%
    10:00 +31°C° 0 mm 3 mps 725 mmHg 50%
    11:00 +33°C° 0 mm 3 mps 724 mmHg 38%
    12:00 +34°C° 0 mm 3 mps 724 mmHg 34%
    13:00 +35°C° 0 mm 3 mps 723 mmHg 30%
    14:00 +36°C° 0 mm 3 mps 722 mmHg 26%
    15:00 +36°C° 0 mm 3 mps 722 mmHg 27%
    16:00 +36°C° 0 mm 3 mps 721 mmHg 27%
    17:00 +36°C° 0 mm 3 mps 721 mmHg 28%
    18:00 +32°C° 0 mm 2 mps 721 mmHg 32%
    19:00 +29°C° 0 mm 2 mps 721 mmHg 36%
    20:00 +27°C° 0 mm 1 mps 722 mmHg 40%
    21:00 +26°C° 0 mm 1 mps 722 mmHg 44%
    22:00 +25°C° 0 mm 1 mps 722 mmHg 47%
    23:00 +24°C° 0 mm 1 mps 723 mmHg 50%

    24 January, Thursday

    Time Temperature Precipitation Wind Pressure Humidity
    00:00 +24°C° 0 mm 1 mps 723 mmHg 54%
    01:00 +23°C° 0 mm 1 mps 722 mmHg 58%
    02:00 +21°C° 0 mm 0 mps 722 mmHg 62%
    03:00 +22°C° 0 mm 1 mps 722 mmHg 66%
    04:00 +22°C° 0 mm 1 mps 723 mmHg 70%
    05:00 +22°C° 0 mm 1 mps 723 mmHg 75%
    06:00 +23°C° 0 mm 2 mps 724 mmHg 74%
    07:00 +25°C° 0 mm 2 mps 724 mmHg 73%
    08:00 +26°C° 0 mm 3 mps 725 mmHg 73%
    09:00 +28°C° 0 mm 3 mps 725 mmHg 62%
    10:00 +30°C° 0 mm 3 mps 725 mmHg 52%
    11:00 +31°C° 0 mm 3 mps 725 mmHg 41%
    12:00 +33°C° 0 mm 3 mps 725 mmHg 39%
    13:00 +34°C° 0 mm 3 mps 724 mmHg 36%
    14:00 +35°C° 0 mm 3 mps 723 mmHg 34%
    15:00 +35°C° 0 mm 3 mps 723 mmHg 38%
    16:00 +34°C° 0 mm 4 mps 723 mmHg 42%
    17:00 +34°C° 0 mm 4 mps 723 mmHg 46%
    18:00 +31°C° 0 mm 3 mps 723 mmHg 53%
    19:00 +29°C° 0 mm 3 mps 724 mmHg 61%
    20:00 +27°C° 0 mm 2 mps 724 mmHg 68%
    21:00 +26°C° 0 mm 2 mps 725 mmHg 71%
    22:00 +26°C° 0 mm 2 mps 725 mmHg 75%
    23:00 +25°C° 0 mm 1 mps 726 mmHg 79%

    25 January, Friday

    Time Temperature Precipitation Wind Pressure Humidity
    00:00 +25°C° 0 mm 2 mps 726 mmHg 80%
    01:00 +25°C° 0 mm 2 mps 725 mmHg 82%
    02:00 +25°C° 0 mm 2 mps 725 mmHg 84%
    03:00 +24°C° 0 mm 2 mps 726 mmHg 87%
    04:00 +23°C° 0 mm 2 mps 726 mmHg 91%
    05:00 +23°C° 0 mm 2 mps 726 mmHg 94%
    06:00 +23°C° 0 mm 2 mps 727 mmHg 90%
    07:00 +24°C° 0 mm 2 mps 727 mmHg 86%
    08:00 +25°C° 0 mm 3 mps 728 mmHg 82%
    09:00 +27°C° 0.1 mm 2 mps 728 mmHg 73%
    10:00 +29°C° 0.1 mm 2 mps 727 mmHg 65%
    11:00 +30°C° 0.1 mm 2 mps 727 mmHg 56%
    12:00 +32°C° 0 mm 2 mps 727 mmHg 49%
    13:00 +34°C° 0 mm 2 mps 726 mmHg 43%
    14:00 +36°C° 0 mm 2 mps 725 mmHg 36%
    15:00 +36°C° 0 mm 2 mps 725 mmHg 35%
    16:00 +36°C° 0 mm 2 mps 724 mmHg 33%
    17:00 +36°C° 0 mm 3 mps 724 mmHg 32%
    18:00 +34°C° 0 mm 3 mps 724 mmHg 38%
    19:00 +30°C° 0 mm 3 mps 725 mmHg 44%
    20:00 +28°C° 0 mm 3 mps 725 mmHg 50%
    21:00 +28°C° 0 mm 3 mps 726 mmHg 55%
    22:00 +27°C° 0 mm 2 mps 726 mmHg 60%
    23:00 +26°C° 0 mm 2 mps 726 mmHg 65%

    26 January, Saturday

    Time Temperature Precipitation Wind Pressure Humidity
    00:00 +26°C° 0 mm 3 mps 726 mmHg 69%
    01:00 +25°C° 0 mm 3 mps 726 mmHg 73%
    02:00 +25°C° 0 mm 3 mps 726 mmHg 77%
    03:00 +25°C° 0 mm 3 mps 726 mmHg 81%
    04:00 +24°C° 0 mm 3 mps 727 mmHg 85%
    05:00 +24°C° 0 mm 3 mps 727 mmHg 89%
    06:00 +25°C° 0 mm 3 mps 728 mmHg 86%
    07:00 +25°C° 0 mm 3 mps 728 mmHg 82%
    08:00 +26°C° 0 mm 4 mps 728 mmHg 79%
    09:00 +28°C° 0 mm 4 mps 728 mmHg 70%
    10:00 +30°C° 0 mm 3 mps 728 mmHg 60%
    11:00 +33°C° 0 mm 3 mps 728 mmHg 51%
    12:00 +34°C° 0 mm 3 mps 727 mmHg 46%
    13:00 +35°C° 0 mm 3 mps 727 mmHg 41%
    14:00 +36°C° 0 mm 3 mps 726 mmHg 36%
    15:00 +35°C° 0 mm 3 mps 726 mmHg 39%
    16:00 +35°C° 0 mm 4 mps 725 mmHg 41%
    17:00 +34°C° 0 mm 4 mps 725 mmHg 44%
    18:00 +33°C° 0 mm 4 mps 725 mmHg 47%
    19:00 +30°C° 0 mm 4 mps 726 mmHg 51%
    20:00 +29°C° 0 mm 4 mps 726 mmHg 55%
    21:00 +28°C° 0 mm 4 mps 727 mmHg 58%
    22:00 +27°C° 0 mm 4 mps 727 mmHg 62%
    23:00 +27°C° 0 mm 4 mps 728 mmHg 65%
    Show more